[[{"header":{"parameterUnit":"m.s-1","parameterCategory":1,"la1":30.2991,"la2":30.254,"lo1":-89.0895,"lo2":-89.0444,"dy":0.0017,"dx":0.0017,"nx":28,"ny":28,"refTime":"2024-02-23T03:00:00:Z","depth":0,"parameterNumber":2,"parameterNumberName":"U-component_of_WINDS"},"data":[0,0,0,0,0,0,0,0,0,0,0,0,0,0,0,0,0,0,0,0,0,0,0,0,0,0,0,0,0,0,0,0,0,0,0,0,0,0,0,0,0,0,0,0,0,0,0,0,0,0,0,0,0,0,0,0,0,0,4.0648,4.0648,0,4.0655,4.0655,4.0656,4.0643,4.0642,4.0642,4.0641,4.0648,4.0648,4.0649,0,0,0,0,0,0,0,0,0,0,0,0,0,4.0625,4.0626,4.0648,4.0648,4.0648,4.0655,4.0655,4.0656,4.0643,4.0642,4.0642,4.0641,4.0648,4.0648,4.0649,0,0,0,0,0,0,0,0,0,0,0,0,0,4.0634,4.0626,4.0648,4.0643,4.0642,4.0655,4.0655,4.0656,4.0643,4.0642,4.0641,4.0641,4.0647,4.0648,4.0649,4.0668,0,0,4.0652,4.0652,0,0,0,0,0,0,0,0,4.0634,4.0635,4.0643,4.0643,4.0643,4.0647,4.065,4.066,4.0643,4.0642,4.0641,4.064,4.0648,4.0649,4.0652,4.0668,4.0668,4.0652,4.0652,4.0653,4.0653,0,0,0,0,0,0,0,4.0633,4.0635,4.0651,4.0643,4.0643,4.0641,4.0641,4.0652,4.0649,4.0642,4.0642,4.0643,4.0648,4.0651,4.0652,4.0668,4.0652,4.0653,4.0653,4.0653,4.0706,4.0707,0,0,0,0,0,0,4.0633,4.0634,4.0651,4.0651,4.0636,4.0642,4.0642,4.0646,4.0649,4.0648,4.0643,4.0642,4.065,4.0651,4.0652,4.0677,4.0653,4.0654,4.0654,4.0705,4.0706,4.0707,0,0,0,0,0,0,4.0633,4.0635,4.065,4.0642,4.0644,4.0643,4.0648,4.0647,4.065,4.0649,4.0649,4.0647,4.0649,4.0651,4.0665,4.0677,4.0654,4.0655,4.0704,4.0705,4.0707,4.0726,0,0,0,0,0,0,4.0632,4.0634,4.064,4.0643,4.0645,4.0662,4.0648,4.0648,4.0652,4.065,4.0652,4.0652,4.0649,4.0664,4.0666,4.0678,4.0655,4.0703,4.0705,4.0706,4.0724,4.0728,4.0731,0,0,0,0,0,4.0631,4.0644,4.0641,4.0643,4.0652,4.0663,4.0664,4.066,4.0653,4.066,4.066,4.0652,4.0676,4.0666,4.0668,4.068,4.0702,4.0704,4.0706,4.0723,4.0727,4.0731,0,0,0,0,0,0,4.0641,4.0644,4.064,4.0654,4.0659,4.0661,4.0669,4.0664,4.0671,4.0669,4.0664,4.0665,4.0681,4.0682,4.0671,4.0701,4.0688,4.069,4.07,4.0704,4.0707,4.0707,4.0656,0,0,0,0,0,4.0645,4.0653,4.0656,4.0668,4.067,4.067,4.0674,4.0671,4.0676,4.0677,4.0678,4.0683,4.0693,4.0698,4.0706,4.0725,4.0727,4.0735,4.0738,4.0741,4.0743,4.0758,4.0763,4.0714,4.0714,4.0714,0,0,4.0652,4.0655,4.066,4.067,4.0673,4.0684,4.0671,4.0681,4.0689,4.0679,4.0693,4.0695,4.07,4.0719,4.0726,4.072,4.0758,4.0743,4.0746,4.0746,4.0761,4.0766,4.077,4.0715,4.0715,4.0714,0,0,4.0672,4.0674,4.0687,4.0692,4.0698,4.0698,4.0701,4.0706,4.0707,4.0722,4.0716,4.0726,4.074,4.0746,4.0751,4.078,4.0774,4.0782,4.0799,4.0814,4.0818,4.0822,4.0835,4.084,4.0785,4.0785,4.0785,0,4.0681,4.0696,4.0693,4.0706,4.0712,4.0705,4.072,4.0724,4.0732,4.0737,4.073,4.0752,4.0754,4.0776,4.0784,4.0787,4.0793,4.0782,4.0818,4.0821,4.0824,4.0838,4.0842,4.0786,4.0786,4.0786,4.0786,0,4.0708,4.0719,4.0728,4.0739,4.0746,4.0759,4.0761,4.0769,4.0767,4.0769,4.0787,4.0791,4.0802,4.0807,4.0804,4.083,4.0826,4.0818,4.0805,4.083,4.0843,4.0847,4.0788,4.0787,4.0787,4.0786,0,0,4.073,4.0744,4.0747,4.0755,4.0764,4.0773,4.0788,4.08,4.0808,4.0816,4.083,4.0845,4.084,4.0845,4.0844,4.0857,4.0884,4.0848,4.0848,4.0857,4.0918,4.0925,4.0931,4.0881,4.0882,4.0883,4.0919,0,4.0752,4.0778,4.0779,4.0803,4.0816,4.0813,4.0826,4.0835,4.0838,4.085,4.0854,4.0867,4.0857,4.0861,4.0874,4.0878,4.0897,4.0875,4.0896,4.0897,4.0896,4.0936,4.0942,4.0976,4.0923,4.0924,4.0925,0,4.0779,4.0791,4.0817,4.083,4.0835,4.0847,4.0862,4.0873,4.0884,4.0886,4.0896,4.0894,4.0912,4.0899,4.0925,4.0911,4.092,4.0924,4.0926,4.0928,4.0913,4.0942,4.0986,4.0992,4.0931,4.0931,4.093,0,4.0796,4.0818,4.0838,4.0844,4.0859,4.0868,4.0875,4.0885,4.0895,4.0908,4.0915,4.0929,4.0937,4.0949,4.0953,4.0942,4.0981,4.0967,4.0985,4.0985,4.0993,4.0993,4.1041,4.0996,4.0996,4.0996,4.0996,0,4.0821,4.0838,4.0847,4.0859,4.0879,4.0882,4.0903,4.0909,4.092,4.0935,4.0933,4.0947,4.095,4.0966,4.0969,4.0993,4.0996,4.1,4.1001,4.1001,4.1001,4.1007,4.1005,4.0998,4.0997,4.0997,4.0997,0,4.0842,4.0849,4.0871,4.0885,4.0889,4.0904,4.0917,4.093,4.0936,4.0955,4.096,4.0969,4.0988,4.0993,4.1015,4.1017,4.1047,4.1044,4.1043,4.1044,4.1063,4.1062,4.1118,4.1128,4.1075,4.1076,4.1076,0,4.0857,4.0871,4.0889,4.09,4.0907,4.0924,4.0935,4.094,4.0952,4.097,4.0982,4.1001,4.1017,4.1048,4.1057,4.1076,4.1075,4.1094,4.1077,4.1079,4.1079,4.1079,4.1082,4.1097,4.1097,4.1098,4.1098,0,4.0885,4.089,4.0905,4.0925,4.0938,4.0953,4.0967,4.0976,4.0984,4.0998,4.1019,4.1032,4.1057,4.1078,4.1098,4.1106,4.1105,4.1104,4.1109,4.111,4.111,4.1114,4.1054,4.1102,4.1101,4.1101,4.1101,4.1101,4.0905,4.0919,4.0936,4.0955,4.0968,4.0983,4.0997,4.1007,4.1025,4.1047,4.1049,4.1073,4.109,4.1117,4.1127,4.1147,4.1141,4.1149,4.1151,4.1153,4.1157,4.1107,4.115,4.115,4.115,4.115,4.115,0,4.0935,4.0947,4.0965,4.0987,4.1004,4.1003,4.1021,4.1035,4.1056,4.1072,4.109,4.1117,4.1139,4.1152,4.1174,4.1188,4.1188,4.1194,4.1193,4.1196,4.1158,4.1152,4.1194,4.1194,4.1194,4.1194,4.1194,4.1194,4.0952,4.0978,4.0985,4.1018,4.103,4.1055,4.1066,4.1081,4.1094,4.1125,4.1144,4.1153,4.117,4.1194,4.1216,4.1219,4.1229,4.1235,4.1239,4.1203,4.1198,4.1194,4.1189,4.1237,4.1237,4.1275,4.1276,4.1276]},{"header":{"parameterUnit":"m.s-1","parameterCategory":1,"la1":30.2991,"la2":30.254,"lo1":-89.0895,"lo2":-89.0444,"dy":0.0017,"dx":0.0017,"nx":28,"ny":28,"refTime":"2024-02-23T03:00:00:Z","depth":0,"parameterNumber":3,"parameterNumberName":"V-component_of_WINDS"},"data":[0,0,0,0,0,0,0,0,0,0,0,0,0,0,0,0,0,0,0,0,0,0,0,0,0,0,0,0,0,0,0,0,0,0,0,0,0,0,0,0,0,0,0,0,0,0,0,0,0,0,0,0,0,0,0,0,0,0,-1.4853,-1.485,0,-1.4601,-1.4598,-1.4595,-1.4611,-1.4615,-1.4618,-1.4622,-1.4352,-1.4342,-1.4331,0,0,0,0,0,0,0,0,0,0,0,0,0,-1.534,-1.5331,-1.4853,-1.485,-1.4847,-1.4601,-1.4598,-1.4594,-1.461,-1.4615,-1.4619,-1.4624,-1.4356,-1.4343,-1.433,0,0,0,0,0,0,0,0,0,0,0,0,0,-1.5112,-1.5328,-1.4854,-1.4825,-1.4821,-1.4602,-1.4597,-1.4593,-1.4609,-1.4615,-1.4621,-1.4626,-1.436,-1.4344,-1.4329,-1.4118,0,0,-1.428,-1.4273,0,0,0,0,0,0,0,0,-1.5125,-1.5094,-1.4833,-1.4827,-1.4821,-1.4643,-1.467,-1.4433,-1.4608,-1.4689,-1.4622,-1.4629,-1.4444,-1.4421,-1.4361,-1.4105,-1.4094,-1.4278,-1.4269,-1.4262,-1.4257,0,0,0,0,0,0,0,-1.514,-1.5105,-1.4753,-1.4829,-1.4822,-1.4822,-1.4796,-1.4626,-1.4538,-1.4682,-1.4683,-1.4654,-1.4442,-1.4377,-1.4355,-1.409,-1.4279,-1.4265,-1.4255,-1.4249,-1.365,-1.3644,0,0,0,0,0,0,-1.5164,-1.5118,-1.4761,-1.4745,-1.499,-1.4809,-1.478,-1.4694,-1.454,-1.4522,-1.4649,-1.4655,-1.4401,-1.4374,-1.4346,-1.4089,-1.4262,-1.4247,-1.4238,-1.3656,-1.3648,-1.3642,0,0,0,0,0,0,-1.5174,-1.5132,-1.4771,-1.4932,-1.4886,-1.4795,-1.4699,-1.4686,-1.4622,-1.4515,-1.4498,-1.4599,-1.4405,-1.4368,-1.4176,-1.408,-1.424,-1.4225,-1.3664,-1.3654,-1.3645,-1.3575,0,0,0,0,0,0,-1.5188,-1.5136,-1.5056,-1.493,-1.4877,-1.4607,-1.4693,-1.4678,-1.4595,-1.4601,-1.4464,-1.4446,-1.4406,-1.4199,-1.416,-1.4061,-1.4213,-1.3672,-1.3659,-1.3648,-1.3585,-1.3564,-1.3546,0,0,0,0,0,-1.5206,-1.5044,-1.5052,-1.5009,-1.4777,-1.4602,-1.4571,-1.4532,-1.4588,-1.4506,-1.4438,-1.4451,-1.4098,-1.418,-1.4135,-1.403,-1.3677,-1.3663,-1.3649,-1.3594,-1.3569,-1.3547,0,0,0,0,0,0,-1.5156,-1.5027,-1.5034,-1.4828,-1.4727,-1.4605,-1.4501,-1.4506,-1.4383,-1.4393,-1.4346,-1.4315,-1.4122,-1.4057,-1.415,-1.3819,-1.3894,-1.3871,-1.3868,-1.3843,-1.3824,-1.3842,-1.4199,0,0,0,0,0,-1.5123,-1.4995,-1.4887,-1.4715,-1.4664,-1.4591,-1.4513,-1.4493,-1.4384,-1.434,-1.4257,-1.4148,-1.4013,-1.3925,-1.3794,-1.3577,-1.3547,-1.3483,-1.3464,-1.3448,-1.3427,-1.3308,-1.3279,-1.3595,-1.3595,-1.3595,0,0,-1.5049,-1.4962,-1.4883,-1.4703,-1.4622,-1.4488,-1.4555,-1.4409,-1.4309,-1.4316,-1.4131,-1.4067,-1.3942,-1.3737,-1.3642,-1.3677,-1.3334,-1.343,-1.3419,-1.3406,-1.3291,-1.3261,-1.3234,-1.3585,-1.3587,-1.3589,0,0,-1.4847,-1.4769,-1.4618,-1.4537,-1.4415,-1.4369,-1.4333,-1.4211,-1.417,-1.3984,-1.3988,-1.3866,-1.3634,-1.3546,-1.347,-1.3239,-1.3246,-1.3198,-1.3095,-1.2979,-1.2954,-1.2932,-1.2849,-1.282,-1.3178,-1.3178,-1.3178,0,-1.4769,-1.4571,-1.4538,-1.4393,-1.4313,-1.432,-1.4165,-1.4086,-1.3926,-1.387,-1.3912,-1.3624,-1.354,-1.3315,-1.3259,-1.3198,-1.3154,-1.3212,-1.2962,-1.2939,-1.2917,-1.2837,-1.2806,-1.3173,-1.3173,-1.3174,-1.3174,0,-1.4482,-1.4344,-1.4236,-1.4087,-1.3995,-1.3846,-1.3788,-1.3698,-1.3687,-1.3635,-1.3445,-1.3347,-1.3197,-1.3142,-1.3127,-1.2915,-1.294,-1.2973,-1.3047,-1.2883,-1.2807,-1.2776,-1.3165,-1.3167,-1.3169,-1.317,0,0,-1.4237,-1.4077,-1.4037,-1.397,-1.3839,-1.373,-1.3581,-1.3439,-1.3363,-1.3253,-1.3125,-1.2931,-1.2962,-1.2876,-1.2851,-1.2751,-1.2574,-1.2795,-1.2791,-1.2757,-1.2334,-1.2309,-1.2275,-1.2579,-1.2573,-1.2569,-1.2344,0,-1.4021,-1.3761,-1.3729,-1.3496,-1.3368,-1.3375,-1.3245,-1.3148,-1.3097,-1.2979,-1.2921,-1.2784,-1.2834,-1.2783,-1.2684,-1.2617,-1.2488,-1.2633,-1.2457,-1.2452,-1.2487,-1.2235,-1.2208,-1.2001,-1.2314,-1.2309,-1.2306,0,-1.3733,-1.3621,-1.3377,-1.3266,-1.321,-1.3095,-1.2963,-1.2851,-1.2742,-1.2712,-1.2619,-1.2608,-1.2452,-1.2536,-1.2319,-1.2418,-1.2345,-1.2301,-1.2292,-1.2273,-1.2367,-1.2207,-1.1934,-1.1902,-1.2259,-1.2262,-1.2266,0,-1.3579,-1.3366,-1.3193,-1.3136,-1.3001,-1.292,-1.2859,-1.2757,-1.2674,-1.2559,-1.2504,-1.2371,-1.2297,-1.2192,-1.2145,-1.2211,-1.1931,-1.2011,-1.19,-1.1901,-1.1838,-1.1842,-1.1548,-1.1794,-1.1794,-1.1795,-1.1796,0,-1.3339,-1.3189,-1.3123,-1.3016,-1.2848,-1.2813,-1.2647,-1.2589,-1.2498,-1.2378,-1.2375,-1.2262,-1.2207,-1.2086,-1.2047,-1.1874,-1.184,-1.181,-1.1801,-1.1809,-1.1813,-1.1759,-1.1771,-1.1787,-1.1788,-1.179,-1.1791,0,-1.3136,-1.3086,-1.2898,-1.2789,-1.2758,-1.2639,-1.2544,-1.2439,-1.2391,-1.224,-1.2202,-1.2125,-1.1982,-1.1926,-1.1749,-1.1724,-1.1524,-1.1527,-1.1562,-1.1559,-1.1451,-1.1462,-1.1109,-1.1061,-1.1341,-1.1338,-1.1336,0,-1.2986,-1.2872,-1.2752,-1.2674,-1.2613,-1.2486,-1.2404,-1.2364,-1.2278,-1.2148,-1.2058,-1.1917,-1.1802,-1.1573,-1.1499,-1.1365,-1.1364,-1.125,-1.1343,-1.1356,-1.1361,-1.1368,-1.1356,-1.1232,-1.1229,-1.1227,-1.1225,0,-1.2724,-1.2706,-1.259,-1.2465,-1.2368,-1.2266,-1.2167,-1.2103,-1.2048,-1.1951,-1.1808,-1.1719,-1.1542,-1.1401,-1.1264,-1.1199,-1.1201,-1.1197,-1.1164,-1.117,-1.1195,-1.1179,-1.1514,-1.1204,-1.1206,-1.1208,-1.1209,-1.121,-1.2542,-1.2442,-1.2343,-1.2213,-1.2136,-1.2045,-1.1943,-1.1884,-1.1765,-1.1621,-1.1604,-1.145,-1.1345,-1.1162,-1.1092,-1.0969,-1.0998,-1.095,-1.0938,-1.0926,-1.0919,-1.1217,-1.0943,-1.0944,-1.0944,-1.0945,-1.0945,0,-1.2279,-1.2218,-1.21,-1.1964,-1.1862,-1.188,-1.1772,-1.1684,-1.155,-1.1454,-1.1343,-1.1178,-1.1043,-1.0961,-1.0824,-1.0742,-1.074,-1.0707,-1.0711,-1.0696,-1.09,-1.0942,-1.0711,-1.0711,-1.0711,-1.0711,-1.0711,-1.0711,-1.2131,-1.1962,-1.1933,-1.1726,-1.1664,-1.1517,-1.1454,-1.1369,-1.1293,-1.1111,-1.1,-1.0949,-1.0858,-1.0716,-1.0592,-1.0571,-1.052,-1.0485,-1.0466,-1.0658,-1.0682,-1.0705,-1.0744,-1.0475,-1.0474,-1.0272,-1.027,-1.0269]}]]